This demonstration page uses our WeatherBlox Daily Observations layout. Learn more.

36.17497, -115.13722

Hourly Observations for May 10, 2015

Temp ( °F °C ) Dew Point ( °F °C ) Humidity (%) Winds ( mph kmh ) Pressure ( in mb ) Visibility ( mi km ) Precip ( " mm )
12:53 am 00:53 Clear 61 16.1 43 6.1 52 52 S 3 6 30.01 1016 10 16.0934 0 0
1:53 am 01:53 Clear 60 15.6 43 6.1 53 53 SSW 3 6 29.99 1016 10 16.0934 0 0
2:53 am 02:53 Clear 59 15 43 6.1 56 56 Calm 29.99 1016 10 16.0934 0 0
3:53 am 03:53 Clear 58 14.4 42 5.6 56 56 Calm 30 1016 10 16.0934 0 0
4:53 am 04:53 Clear 58 14.4 42 5.6 56 56 Calm 30 1016 10 16.0934 0 0
5:53 am 05:53 Sunny 57 13.9 42 5.6 58 58 Calm 30.01 1016 10 16.0934 0 0
6:53 am 06:53 Sunny 60 15.6 41 5 50 50 Calm 30.04 1017 10 16.0934 0 0
7:53 am 07:53 Sunny 62 16.7 39 3.9 43 43 NNW 10 17 30.04 1017 10 16.0934 0 0
8:53 am 08:53 Sunny 64 17.8 40 4.4 41 41 Calm 30.05 1018 10 16.0934 0 0
9:53 am 09:53 Sunny 67 19.4 40 4.4 37 37 SSE 8 13 30.04 1017 10 16.0934 0 0
10:53 am 10:53 Sunny 70 21.1 39 3.9 32 32 E 6 9 30.04 1017 10 16.0934 0 0
11:53 am 11:53 Sunny 75 23.9 36 2.2 24 24 ESE 5 7 30.01 1016 10 16.0934 0 0
12:53 pm 12:53 Sunny 75 23.9 32 0 21 21 VRB 6 9 29.99 1016 10 16.0934 0 0
1:53 pm 13:53 Sunny 79 26.1 28 -2.2 15 15 ESE 8 13 29.97 1015 10 16.0934 0 0
2:53 pm 14:53 Sunny 79 26.1 26 -3.3 14 14 E 8 13 29.95 1014 10 16.0934 0 0
3:53 pm 15:53 Sunny 81 27.2 24 -4.4 12 12 VRB 7 11 29.93 1013 10 16.0934 0 0
4:53 pm 16:53 Sunny 80 26.7 22 -5.6 11 11 ESE 3 6 29.92 1013 10 16.0934 0 0
5:53 pm 17:53 Sunny 80 26.7 21 -6.1 11 11 S 5 7 29.91 1013 10 16.0934 0 0
6:53 pm 18:53 Sunny 80 26.7 20 -6.7 10 10 SE 3 6 29.9 1013 10 16.0934 0 0
7:53 pm 19:53 Clear 77 25 20 -6.7 12 12 ESE 5 7 29.91 1013 10 16.0934 0 0
8:53 pm 20:53 Clear 75 23.9 21 -6.1 13 13 SSE 7 11 29.92 1013 10 16.0934 0 0
9:53 pm 21:53 Clear 75 23.9 23 -5 14 14 S 5 7 29.93 1014 10 16.0934 0 0
10:53 pm 22:53 Clear 70 21.1 25 -3.9 18 18 N 5 7 29.94 1014 10 16.0934 0 0
11:53 pm 23:53 Clear 70 21.1 27 -2.8 20 20 NW 5 7 29.93 1014 10 16.0934 0 0

Powered by AerisWeather